Location: Dappach
(48.9767°N, 9.6998°E)
Time: 13:02:34
(UTC+00:00)

deb Delta 139 - Visible Passes

Search period start: 03 October 2024 00:00
Search period end: 13 October 2024 00:00
Orbit: 755 x 1029 km, 98.8° (Epoch: 02 October)

Date Brightness Start Highest point End Pass type
(mag) Time Alt. Az. Time Alt. Az. Time Alt. Az.
03 Oct ? 01:31:57 27° E 01:33:03 29° ENE 01:37:40 10° N visible
03 Oct ? 03:14:51 45° W 03:14:51 45° W 03:19:36 10° NNW visible
04 Oct ? 01:32:26 28° ENE 01:33:19 30° ENE 01:37:59 10° N visible
04 Oct ? 03:15:20 44° WNW 03:15:20 44° WNW 03:19:54 10° NNW visible
04 Oct ? 17:14:41 10° N 17:19:37 28° WNW 17:24:45 10° WSW visible
05 Oct ? 01:32:54 29° ENE 01:33:34 30° ENE 01:38:16 10° N visible
05 Oct ? 03:15:47 42° WNW 03:15:47 42° WNW 03:20:10 10° NNW visible
05 Oct ? 17:14:54 10° N 17:19:53 28° WNW 17:25:02 10° WSW visible
06 Oct ? 01:33:20 30° ENE 01:33:48 30° ENE 01:38:32 10° N visible
06 Oct ? 03:16:13 40° WNW 03:16:13 40° WNW 03:20:25 10° NNW visible
06 Oct ? 17:15:07 10° N 17:20:07 28° WNW 17:25:17 10° WSW visible
07 Oct ? 01:33:44 30° ENE 01:34:00 31° ENE 01:38:47 10° N visible
07 Oct ? 03:16:37 39° WNW 03:16:37 39° WNW 03:20:39 10° NNW visible
07 Oct ? 17:15:19 10° N 17:20:20 28° WNW 17:25:30 10° WSW visible
08 Oct ? 01:34:07 31° ENE 01:34:10 31° ENE 01:39:00 10° N visible
08 Oct ? 03:17:00 37° WNW 03:17:00 37° WNW 03:20:52 10° NNW visible
08 Oct ? 17:15:29 10° N 17:20:31 28° WNW 17:25:42 10° WSW visible
09 Oct ? 01:34:29 31° ENE 01:34:29 31° ENE 01:39:11 10° N visible
09 Oct ? 03:17:22 35° NW 03:17:22 35° NW 03:21:03 10° NNW visible
09 Oct ? 17:15:38 10° N 17:20:41 28° WNW 17:25:53 10° WSW visible
10 Oct ? 01:34:49 31° NE 01:34:49 31° NE 01:39:22 10° N visible
10 Oct ? 03:17:42 33° NW 03:17:42 33° NW 03:21:12 10° NNW visible
10 Oct ? 17:15:46 10° N 17:20:49 28° WNW 17:26:02 10° WSW visible
11 Oct ? 01:35:08 31° NE 01:35:08 31° NE 01:39:31 10° N visible
11 Oct ? 03:18:01 32° NW 03:18:01 32° NW 03:21:20 10° NNW visible
11 Oct ? 17:15:51 10° N 17:20:57 28° WNW 17:26:10 10° WSW visible
12 Oct ? 01:35:25 31° NE 01:35:25 31° NE 01:39:38 10° N visible
12 Oct ? 03:18:18 30° NW 03:18:18 30° NW 03:21:27 10° NNW visible
12 Oct ? 17:15:56 10° N 17:21:02 28° WNW 17:26:16 10° WSW visible
